NOAA NWS Hourly Roundups by Site

Regional Weather Roundup for Green Bay, WI

To Select Another Site Choose from List

Select Site:  

000
ASUS43 KGRB 181911
RWRGRB

NORTH-CENTRAL AND NORTHEAST WISCONSIN REGIONAL WEATHER ROUNDUP
NATIONAL WEATHER SERVICE GREEN BAY WI
100 PM CST MON NOV 18 2019

WIZ005-009-010>012-018-019-182000-
NORTH CENTRAL WISCONSIN

CITY           SKY/WX    TMP DP  RH WIND       PRES   REMARKS
IRONWOOD       CLOUDY    30  26  85 S5        29.71F
MANITOWISH WTR CLOUDY    28  28  96 S6        29.69F
ARBOR VITAE    CLOUDY    32  29  90 SW5       29.69S
EAGLE RIVER    CLOUDY    31  29  89 SW3       29.69S
LAND O LAKES   CLOUDY    32  29  88 S3        29.70S
RHINELANDER    CLOUDY    31  26  82 W3        29.69F
PHILLIPS       CLOUDY    28  27  96 W3        29.70F
ANTIGO         CLOUDY    32  28  85 CALM      29.70F
TOMAHAWK       CLOUDY    29  26  89 CALM      29.71S
MERRILL        CLOUDY    32  27  83 W5        29.72S
$$

WIZ013-073-182000-
NORTHEAST WISCONSIN

CITY           SKY/WX    TMP DP  RH WIND       PRES   REMARKS
IRON MOUNTAIN  CLOUDY    37  29  72 CALM      29.68F
MARINETTE      CLOUDY    40  32  73 CALM      29.73S
OCONTO         CLOUDY    38  31  76 N5        29.72F
$$

WIZ017-030-035>037-045-182000-
CENTRAL WISCONSIN

CITY           SKY/WX    TMP DP  RH WIND       PRES   REMARKS
MEDFORD        CLOUDY    27  25  92 W3        29.70F
WAUSAU         CLOUDY    31  28  89 W3        29.71S
MOSINEE        CLOUDY    30  28  93 SW6       29.73F
MARSHFIELD     CLOUDY    30  26  85 W5        29.72S
WISC RAPIDS    CLOUDY    31  27  85 W6        29.75F
STEVENS POINT  CLOUDY    30  28  92 W3        29.74S
WAUPACA        CLOUDY    36  31  82 W3        29.75S
SHAWANO        CLOUDY    39  30  71 W5        29.72F
CLINTONVILLE   CLOUDY    35  28  77 W5        29.73F
WAUTOMA        CLOUDY    32  29  88 W8        29.75F
$$

WIZ038-039-048-051-182000-
FOX VALLEY

CITY           SKY/WX    TMP DP  RH WIND       PRES   REMARKS
NWS GREEN BAY  CLOUDY    36  29  75 W7        29.74F
APPLETON       CLOUDY    34  30  86 W5        29.72F
OSHKOSH        CLOUDY    34  31  88 W5        29.73F
FOND DU LAC    CLOUDY    36  31  82 W6        29.74F
$$

WIZ022-050-052-182000-
EAST CENTRAL WISCONSIN

CITY           SKY/WX    TMP DP  RH WIND       PRES   REMARKS
EPHRAIM        CLOUDY    36  33  87 CALM      29.71S
WASHINGTON ISL CLOUDY    36  34  91 N3        29.71F
STURGEON BAY   CLOUDY    37  33  85 W5        29.73F
MANITOWOC      CLOUDY    37  32  82 W8        29.74F
SHEBOYGAN      CLOUDY    36  29  75 SW5       29.74F
$$

LMZ563-521-522-541>543-182000-
LAKESHORE

STATION/POSITION TIME  TEMP    WIND        PRES    VSBY  WAVE
                       AIR SEA DIR/SP/G                  HT/PER
                 (UTC) (F)     (DEG/KT/KT) (MB)    (MI)  (FT/S)
SHEBOYGAN LKSHOR 1900   37     260/  7/  8 1007.8F
KEWAUNEE LKSHORE 1830   37     310/  5/  8 1006.5F
NORTHPORT PIER   1840   37     290/  3/  5 1006.4F
SISTER BAY LKSHO 1857   38     330/  6/  7   N/A
CHAMBERS ISLAND  1840   38     260/  2/  5   N/A
MENOMINEE LKSHOR 1830   36 38  360/  4/  4 1006.5F
$$


 

View Past Reports for Green Bay, WI.

Products Courtesy of NOAA-NWS
NWS Information Parsing Script by Ken True at Saratoga Weather - Script by SE Lincoln Weather.